This is the latest recevied weather packets stored in our database for station/object IW1CGW-23. If no packets are shown the sender has not sent any weather packets the latest 10 day(s).
| Time | Temp. | Humidity | Pressure | Rain* | Wind** | Luminosity | Snow |
|---|---|---|---|---|---|---|---|
| 1777485919 | 19.44° C | 53% | 1014.6 hPa | - | - | - | - |
| 1777485136 | 19.44° C | 54% | 1014.7 hPa | - | - | - | - |
| 1777484352 | 18.89° C | 56% | 1014.7 hPa | - | - | - | - |
| 1777483569 | 18.89° C | 54% | 1014.6 hPa | - | - | - | - |
| 1777482785 | 19.44° C | 52% | 1014.5 hPa | - | - | - | - |
| 1777480434 | 20° C | 50% | 1014.5 hPa | - | - | - | - |
| 1777479649 | 20° C | 51% | 1014.5 hPa | - | - | - | - |
| 1777478865 | 20° C | 52% | 1014.5 hPa | - | - | - | - |
| 1777478080 | 20.56° C | 50% | 1014.6 hPa | - | - | - | - |
| 1777477296 | 20.56° C | 50% | 1014.6 hPa | - | - | - | - |
| 1777474945 | 19.44° C | 56% | 1014.9 hPa | - | - | - | - |
| 1777474160 | 20° C | 56% | 1014.9 hPa | - | - | - | - |
| 1777473376 | 20.56° C | 57% | 1014.9 hPa | - | - | - | - |
| 1777472591 | 20° C | 62% | 1015.1 hPa | - | - | - | - |
| 1777471812 | 20° C | 65% | 1015.5 hPa | - | - | - | - |
| 1777471023 | 19.44° C | 67% | 1015.4 hPa | - | - | - | - |
| 1777470239 | 19.44° C | 69% | 1015.6 hPa | - | - | - | - |
| 1777468672 | 18.89° C | 74% | 1015.6 hPa | - | - | - | - |
| 1777467108 | 18.89° C | 77% | 1015.8 hPa | - | - | - | - |
| 1777466320 | 18.89° C | 79% | 1016 hPa | - | - | - | - |
| 1777463973 | 18.89° C | 76% | 1015.9 hPa | - | - | - | - |
| 1777463185 | 19.44° C | 74% | 1015.8 hPa | - | - | - | - |
| 1777462404 | 20° C | 74% | 1015.9 hPa | - | - | - | - |
| 1777461615 | 20° C | 74% | 1016 hPa | - | - | - | - |
| 1777460043 | 20.56° C | 72% | 1016.1 hPa | - | - | - | - |
* Rain since midnight (hover to see other rain measurements)
** Current wind speed in m/s (hover to see current wind gust speed)